Find Yaogan 33-02

NORAD ID: 53698 Int'l Des: 2022-106 Owner: ZLZB Country: CN Constellation: yaogan operational
LEOCIRCULARRETROGRADESSO

实时位置

正在加载3D地球...

关于 Yaogan 33-02

正在加载描述...

即将过境

Passes for default location (London). Set your location on the main map for personalized predictions.

高度历史

Loading altitude history...

两行轨道根数

1 53698U 22106A 26107.28412971 .00000074 00000-0 25742-4 0 9997
2 53698 98.1841 116.0565 0002068 29.3005 330.8310 14.58703943192849
Epoch: Apr 17, 2026 • Age: 9 hours

当前状态

高度 704.9 km
速度 7.51 km/s
星下点 46.71°N, 135.48°W
发射日期 Sep 2, 2022
运行时间 3.6 years
类型 military

技术详情

分类 Payload
质量 1040.00 kg
干质量 1040.00 kg
总质量 1040.00 kg
长度 1.50 m
直径 1.50 m
跨度 5.00 m
形状 Box + 2 Pan
制造商 SAST
平台类型 JB-9
阶段状态 In Orbit
所有者/国家 ZLZB/CN

Most Searched